Lake Harding Weather Center

Moon Phase Calendar



Lake Harding Water Level
Online Cameras

 


      

Current Conditions in Valley
12/2/2020 7:52:38 PM

40°F
Feels Like 35
Clear
Humidity
74%
Pressure
30.3"
Wind
3.3 mph (NNE)
Dew Point
33°F
UV Index
0/10 (Low)
Visibility
6 mi

Hourly Forecast

Date & Time Wed, Dec 2
7:00 PM
Wed, Dec 2
8:00 PM
Wed, Dec 2
9:00 PM
Wed, Dec 2
10:00 PM
Wed, Dec 2
11:00 PM
Thu, Dec 3
12:00 AM
Thu, Dec 3
1:00 AM
Thu, Dec 3
2:00 AM
Thu, Dec 3
3:00 AM
Thu, Dec 3
4:00 AM
Thu, Dec 3
5:00 AM
Thu, Dec 3
6:00 AM
Thu, Dec 3
7:00 AM
Thu, Dec 3
8:00 AM
Thu, Dec 3
9:00 AM
Thu, Dec 3
10:00 AM
Thu, Dec 3
11:00 AM
Thu, Dec 3
12:00 PM
Thu, Dec 3
1:00 PM
Thu, Dec 3
2:00 PM
Thu, Dec 3
3:00 PM
Thu, Dec 3
4:00 PM
Thu, Dec 3
5:00 PM
Thu, Dec 3
6:00 PM
Thu, Dec 3
7:00 PM
Thu, Dec 3
8:00 PM
Thu, Dec 3
9:00 PM
Thu, Dec 3
10:00 PM
Thu, Dec 3
11:00 PM
Fri, Dec 4
12:00 AM
Fri, Dec 4
1:00 AM
Fri, Dec 4
2:00 AM
Fri, Dec 4
3:00 AM
Fri, Dec 4
4:00 AM
Fri, Dec 4
5:00 AM
Fri, Dec 4
6:00 AM
Fri, Dec 4
7:00 AM
Fri, Dec 4
8:00 AM
Fri, Dec 4
9:00 AM
Fri, Dec 4
10:00 AM
Fri, Dec 4
11:00 AM
Fri, Dec 4
12:00 PM
Fri, Dec 4
1:00 PM
Fri, Dec 4
2:00 PM
Fri, Dec 4
3:00 PM
Fri, Dec 4
4:00 PM
Fri, Dec 4
5:00 PM
Fri, Dec 4
6:00 PM
Condition
Clear

Clear

Clear

Clear

Clear

Clear

Clouds

Clouds

Clouds

Clouds

Clouds

Clouds

Clouds

Clouds

Clouds

Clouds

Clouds

Clouds

Clouds

Clouds

Clouds

Clouds

Clouds

Clouds

Clouds

Clouds

Clouds

Clouds

Clouds

Clouds

Clouds

Clouds

Clouds

Clouds

Clouds

Clouds

Clouds

Clouds

Clouds

Clouds

Clouds

Rain

Rain

Rain

Rain

Rain

Rain

Rain
Temperature 40°F40°F39°F38°F37°F36°F36°F36°F35°F35°F35°F35°F34°F35°F40°F44°F48°F51°F54°F55°F55°F55°F52°F48°F47°F47°F47°F47°F46°F46°F46°F46°F46°F46°F46°F46°F47°F48°F52°F57°F62°F63°F61°F61°F61°F61°F61°F61°F
Feels Like 35°F34°F33°F32°F31°F30°F30°F29°F29°F29°F29°F28°F28°F28°F33°F37°F40°F44°F48°F49°F51°F50°F47°F44°F42°F42°F42°F43°F42°F41°F41°F41°F41°F42°F42°F42°F43°F44°F48°F52°F58°F59°F59°F59°F60°F60°F59°F59°F
Cloudiness 1%1%0%0%0%1%14%41%25%43%57%66%72%77%86%91%93%94%93%100%100%100%100%100%100%88%94%96%97%98%98%100%100%100%100%100%100%100%100%100%100%100%100%100%100%100%100%100%
Visibility 6 mi6 mi6 mi6 mi6 mi6 mi6 mi6 mi6 mi6 mi6 mi6 mi6 mi6 mi6 mi6 mi6 mi6 mi6 mi6 mi6 mi6 mi6 mi6 mi6 mi6 mi6 mi6 mi6 mi6 mi6 mi6 mi6 mi6 mi6 mi6 mi6 mi6 mi6 mi6 mi6 mi6 mi6 mi6 mi6 mi3 mi2 mi2 mi
Precipitation 0%0%0%0%0%0%0%0%0%0%0%0%0%0%0%0%0%0%0%0%0%0%0%0%0%0%0%0%0%0%0%0%0%0%0%0%0%0%0%0%0%25%71%100%100%100%100%100%
Humidity 74%72%73%76%78%80%80%81%83%84%85%85%86%84%69%60%53%49%49%52%56%60%70%79%82%83%84%84%87%89%91%92%93%94%94%95%96%96%90%84%79%81%89%91%94%96%96%97%
Dew Point 33°F32°F31°F31°F31°F26°F26°F26°F26°F27°F26°F26°F26°F26°F27°F28°F30°F33°F36°F38°F40°F42°F43°F42°F42°F42°F42°F43°F43°F43°F43°F44°F44°F44°F45°F45°F46°F47°F50°F53°F55°F57°F58°F59°F60°F60°F60°F60°F
Pressure 30.3"30.3"30.33"30.33"30.33"30.33"30.33"30.33"30.33"30.33"30.33"30.33"30.33"30.36"30.36"30.36"30.36"30.33"30.3"30.27"30.24"30.24"30.21"30.24"30.24"30.24"30.24"30.24"30.24"30.24"30.21"30.21"30.18"30.18"30.15"30.15"30.12"30.12"30.12"30.12"30.09"30.06"30"29.97"29.94"29.91"29.91"29.91"
Wind Speed 3.2 mph3.3 mph3.7 mph4.5 mph4.3 mph3.8 mph3.2 mph4.3 mph3.9 mph4.2 mph3.9 mph4.5 mph4.1 mph5.1 mph5.4 mph6 mph6.8 mph6.1 mph5.8 mph6.2 mph4.7 mph4.6 mph5.7 mph4.5 mph5.8 mph5.3 mph5.3 mph5.1 mph5.7 mph5.8 mph5.2 mph5 mph5.3 mph5.1 mph5.2 mph5.6 mph5.5 mph6.2 mph8.2 mph10.5 mph10.1 mph11.1 mph8.2 mph9.1 mph8.2 mph7.3 mph8.2 mph8.1 mph
Wind
Direction
33°
NNE
26°
NNE
39°
NE
39°
NE
62°
ENE
69°
ENE
68°
ENE
102°
ESE
88°
E
94°
E
76°
ENE
83°
E
84°
E
92°
E
103°
ESE
101°
E
109°
ESE
123°
ESE
147°
SSE
152°
SSE
148°
SSE
120°
ESE
117°
ESE
131°
SE
121°
ESE
114°
ESE
119°
ESE
117°
ESE
117°
ESE
120°
ESE
115°
ESE
116°
ESE
117°
ESE
123°
ESE
122°
ESE
119°
ESE
130°
SE
125°
SE
142°
SE
148°
SSE
169°
S
173°
S
161°
SSE
163°
SSE
160°
SSE
160°
SSE
163°
SSE
175°
S

Daily Forecast

Date High Low Precip. Humidity
Today
Dec 2

Clear
56 °F
30 °F
0%
43%
Thursday
Dec 3

Clouds
55 °F
34 °F
0%
49%
Friday
Dec 4

Rain
63 °F
46 °F
100%
81%
Saturday
Dec 5

Clear
55 °F
39 °F
50%
55%
Sunday
Dec 6

Clouds
55 °F
38 °F
0%
51%
Monday
Dec 7

Clear
53 °F
39 °F
0%
49%
Tuesday
Dec 8

Clear
52 °F
32 °F
0%
45%
Wednesday
Dec 9

Clear
58 °F
35 °F
0%
52%
Thursday
Dec 10

Clear
64 °F
42 °F
0%
49%
Friday
Dec 11

Clouds
63 °F
45 °F
0%
55%
Saturday
Dec 12

Clear
66 °F
47 °F
0%
52%
Sunday
Dec 13

Clouds
67 °F
48 °F
0%
51%
Monday
Dec 14

Rain
68 °F
52 °F
34%
63%
Tuesday
Dec 15

Rain
67 °F
56 °F
100%
92%
Wednesday
Dec 16

Rain
55 °F
39 °F
83%
59%
Thursday
Dec 17

Clear
50 °F
34 °F
0%
50%


Temperature 8-14 Day Outlook



Precipitation 8-14 Day Outlook




Quick Links
Lake Harding News
Lake Harding Photos
Lake Harding Videos




About Us
Contact Us
Site Map
Search Site
Advertise With Us
   
www.LakeHardingNews.com
THE LAKE HARDING WEBSITE

Copyright 2020, Lakes Online
Privacy    |    Legal